Time,TemperatureF,DewpointF,PressureIn,WindDirection,WindDirectionDegrees,WindSpeedMPH,WindSpeedGustMPH,Humidity,HourlyPrecipIn,Conditions,Clouds,dailyrainin,SoftwareType,DateUTC
2015-05-28 00:01:00,53.6,53.3,29.86,SE,135,1.6,3.5,99,0.00,CLR,,0.00,WeatherDisplay:10.37,2015-05-28 07:01:00,
2015-05-28 00:06:00,53.2,53.0,29.86,SE,135,0.7,2.3,99,0.00,CLR,,0.00,WeatherDisplay:10.37,2015-05-28 07:06:00,
2015-05-28 00:11:00,53.1,52.8,29.86,SE,135,1.6,3.5,99,0.00,CLR,,0.00,WeatherDisplay:10.37,2015-05-28 07:11:00,
2015-05-28 00:16:00,53.1,52.8,29.86,South,180,0.7,3.5,99,0.00,CLR,,0.00,WeatherDisplay:10.37,2015-05-28 07:16:00,
2015-05-28 00:21:00,52.9,52.6,29.86,South,180,1.6,3.5,99,0.00,CLR,,0.00,WeatherDisplay:10.37,2015-05-28 07:21:00,
2015-05-28 00:26:00,52.9,52.6,29.87,South,180,1.6,3.5,99,0.00,CLR,,0.00,WeatherDisplay:10.37,2015-05-28 07:26:00,
2015-05-28 00:31:00,52.9,52.6,29.86,South,180,1.6,3.5,99,0.00,CLR,,0.00,WeatherDisplay:10.37,2015-05-28 07:31:00,
2015-05-28 00:36:00,52.7,52.4,29.86,SE,135,1.6,3.5,99,0.00,CLR,,0.00,WeatherDisplay:10.37,2015-05-28 07:36:00,
2015-05-28 00:41:00,52.7,52.4,29.87,SE,135,0.7,2.3,99,0.00,CLR,,0.00,WeatherDisplay:10.37,2015-05-28 07:41:00,
2015-05-28 00:46:00,52.5,52.2,29.87,SE,135,1.6,3.5,99,0.00,CLR,,0.00,WeatherDisplay:10.37,2015-05-28 07:46:00,
2015-05-28 00:51:00,52.5,52.2,29.87,SE,135,2.2,3.5,99,0.00,CLR,,0.00,WeatherDisplay:10.37,2015-05-28 07:51:00,
2015-05-28 00:56:00,52.5,52.2,29.87,SE,135,1.6,3.5,99,0.00,CLR,,0.00,WeatherDisplay:10.37,2015-05-28 07:56:00,
2015-05-28 01:01:00,52.3,52.1,29.87,South,180,0.0,3.5,99,0.00,CLR,,0.00,WeatherDisplay:10.37,2015-05-28 08:01:00,
2015-05-28 01:06:00,52.3,52.1,29.87,SE,135,0.7,1.2,99,0.00,CLR,,0.00,WeatherDisplay:10.37,2015-05-28 08:06:00,
2015-05-28 01:11:00,52.3,52.1,29.88,SE,135,0.7,1.2,99,0.00,CLR,,0.00,WeatherDisplay:10.37,2015-05-28 08:11:00,
2015-05-28 01:16:00,52.5,52.2,29.88,SE,135,1.6,2.3,99,0.00,CLR,,0.00,WeatherDisplay:10.37,2015-05-28 08:16:00,
2015-05-28 01:21:00,52.3,52.1,29.88,SSE,158,1.6,3.5,99,0.00,CLR,,0.00,WeatherDisplay:10.37,2015-05-28 08:21:00,
2015-05-28 01:26:00,52.3,52.1,29.88,SSE,158,1.6,3.5,99,0.00,CLR,,0.00,WeatherDisplay:10.37,2015-05-28 08:26:00,
2015-05-28 01:31:00,52.2,51.9,29.88,SE,135,0.7,2.3,99,0.00,CLR,,0.00,WeatherDisplay:10.37,2015-05-28 08:31:00,
2015-05-28 01:36:00,52.2,51.9,29.88,South,180,2.2,2.3,99,0.00,CLR,,0.00,WeatherDisplay:10.37,2015-05-28 08:36:00,
2015-05-28 01:41:00,52.2,51.9,29.88,SE,135,0.7,2.3,99,0.00,CLR,,0.00,WeatherDisplay:10.37,2015-05-28 08:41:00,
2015-05-28 01:46:00,52.2,51.9,29.88,SE,135,1.6,3.5,99,0.00,CLR,,0.00,WeatherDisplay:10.37,2015-05-28 08:46:00,
2015-05-28 01:51:00,52.0,51.7,29.88,SE,135,1.6,3.5,99,0.00,CLR,,0.00,WeatherDisplay:10.37,2015-05-28 08:51:00,
2015-05-28 01:56:00,52.0,51.7,29.88,South,180,2.2,3.5,99,0.00,CLR,,0.00,WeatherDisplay:10.37,2015-05-28 08:56:00,
2015-05-28 02:01:00,52.0,51.7,29.88,South,180,2.2,3.5,99,0.00,CLR,,0.00,WeatherDisplay:10.37,2015-05-28 09:01:00,
2015-05-28 02:06:00,52.0,51.7,29.88,South,180,1.6,3.5,99,0.00,CLR,,0.00,WeatherDisplay:10.37,2015-05-28 09:06:00,
2015-05-28 02:11:00,52.0,51.7,29.88,South,180,3.1,3.5,99,0.00,CLR,,0.00,WeatherDisplay:10.37,2015-05-28 09:11:00,
2015-05-28 02:16:00,52.0,51.7,29.88,South,180,2.2,3.5,99,0.00,CLR,,0.00,WeatherDisplay:10.37,2015-05-28 09:16:00,
2015-05-28 02:21:00,52.0,51.7,29.88,SE,135,1.6,3.5,99,0.00,CLR,,0.00,WeatherDisplay:10.37,2015-05-28 09:21:00,
2015-05-28 02:26:00,51.8,51.5,29.88,South,180,2.2,3.5,99,0.00,CLR,,0.00,WeatherDisplay:10.37,2015-05-28 09:26:00,
2015-05-28 02:31:00,51.6,51.3,29.88,South,180,1.6,3.5,99,0.00,CLR,,0.00,WeatherDisplay:10.37,2015-05-28 09:31:00,
2015-05-28 02:36:00,51.6,51.3,29.88,South,180,0.7,1.2,99,0.00,CLR,,0.00,WeatherDisplay:10.37,2015-05-28 09:36:00,
2015-05-28 02:41:00,51.6,51.3,29.88,South,180,0.0,1.2,99,0.00,CLR,,0.00,WeatherDisplay:10.37,2015-05-28 09:41:00,
2015-05-28 02:46:00,51.6,51.3,29.88,SE,135,0.7,3.5,99,0.00,CLR,,0.00,WeatherDisplay:10.37,2015-05-28 09:46:00,
2015-05-28 02:51:00,51.6,51.3,29.88,South,180,1.6,3.5,99,0.00,CLR,,0.00,WeatherDisplay:10.37,2015-05-28 09:51:00,
2015-05-28 02:56:00,51.6,51.3,29.88,SW,225,0.0,2.3,99,0.00,CLR,,0.00,WeatherDisplay:10.37,2015-05-28 09:56:00,
2015-05-28 03:01:00,51.8,51.5,29.88,SW,225,0.7,3.5,99,0.00,CLR,,0.00,WeatherDisplay:10.37,2015-05-28 10:01:00,
2015-05-28 03:06:00,51.8,51.5,29.88,South,180,1.6,3.5,99,0.00,CLR,,0.00,WeatherDisplay:10.37,2015-05-28 10:06:00,
2015-05-28 03:11:00,51.8,51.5,29.88,South,180,1.6,5.8,99,0.00,CLR,,0.00,WeatherDisplay:10.37,2015-05-28 10:11:00,
2015-05-28 03:16:00,51.8,51.5,29.88,West,270,1.6,3.5,99,0.00,CLR,,0.00,WeatherDisplay:10.37,2015-05-28 10:16:00,
2015-05-28 03:21:00,51.6,51.3,29.88,West,270,0.7,2.3,99,0.00,CLR,,0.00,WeatherDisplay:10.37,2015-05-28 10:21:00,
2015-05-28 03:31:00,51.6,51.3,29.88,SE,135,0.0,1.2,99,0.00,CLR,,0.00,WeatherDisplay:10.37,2015-05-28 10:31:00,
2015-05-28 03:36:00,51.4,51.2,29.88,SW,225,0.7,2.3,99,0.00,CLR,,0.00,WeatherDisplay:10.37,2015-05-28 10:36:00,
2015-05-28 03:41:00,51.4,51.2,29.88,South,180,0.0,1.2,99,0.00,CLR,,0.00,WeatherDisplay:10.37,2015-05-28 10:41:00,
2015-05-28 03:46:00,51.4,51.2,29.88,SW,225,0.0,3.5,99,0.00,CLR,,0.00,WeatherDisplay:10.37,2015-05-28 10:46:00,
2015-05-28 03:51:00,51.4,51.2,29.88,West,270,0.7,2.3,99,0.00,CLR,,0.00,WeatherDisplay:10.37,2015-05-28 10:51:00,
2015-05-28 03:56:00,51.4,51.2,29.88,SW,225,0.7,3.5,99,0.00,CLR,,0.00,WeatherDisplay:10.37,2015-05-28 10:56:00,
2015-05-28 04:01:00,51.4,51.2,29.88,SW,225,2.2,3.5,99,0.00,CLR,,0.00,WeatherDisplay:10.37,2015-05-28 11:01:00,
2015-05-28 04:06:00,51.4,51.2,29.88,South,180,1.6,2.3,99,0.00,CLR,,0.00,WeatherDisplay:10.37,2015-05-28 11:06:00,
2015-05-28 04:11:00,51.4,51.2,29.88,SW,225,1.6,2.3,99,0.00,CLR,,0.00,WeatherDisplay:10.37,2015-05-28 11:11:00,
2015-05-28 04:16:00,51.3,51.0,29.88,South,180,2.2,4.6,99,0.00,CLR,,0.00,WeatherDisplay:10.37,2015-05-28 11:16:00,
2015-05-28 04:21:00,51.3,51.0,29.88,West,270,2.2,4.6,99,0.00,CLR,,0.00,WeatherDisplay:10.37,2015-05-28 11:21:00,
2015-05-28 04:26:00,51.1,50.8,29.88,West,270,0.7,3.5,99,0.00,CLR,,0.00,WeatherDisplay:10.37,2015-05-28 11:26:00,
2015-05-28 04:31:00,51.1,50.8,29.88,SW,225,1.6,3.5,99,0.00,CLR,,0.00,WeatherDisplay:10.37,2015-05-28 11:31:00,
2015-05-28 04:36:00,51.1,50.8,29.88,West,270,0.7,2.3,99,0.00,CLR,,0.00,WeatherDisplay:10.37,2015-05-28 11:36:00,
2015-05-28 04:41:00,51.1,50.8,29.88,South,180,0.7,3.5,99,0.00,CLR,,0.00,WeatherDisplay:10.37,2015-05-28 11:41:00,
2015-05-28 04:47:00,50.9,50.6,29.88,West,270,0.7,3.5,99,0.00,CLR,,0.00,WeatherDisplay:10.37,2015-05-28 11:47:00,
2015-05-28 04:52:00,50.9,50.6,29.89,West,270,1.6,3.5,99,0.00,CLR,,0.00,WeatherDisplay:10.37,2015-05-28 11:52:00,
2015-05-28 04:57:00,50.9,50.6,29.89,North,0,0.0,2.3,99,0.00,CLR,,0.00,WeatherDisplay:10.37,2015-05-28 11:57:00,
2015-05-28 05:02:00,50.9,50.6,29.89,West,270,0.7,2.3,99,0.00,CLR,,0.00,WeatherDisplay:10.37,2015-05-28 12:02:00,
2015-05-28 05:07:00,50.9,50.6,29.89,West,270,1.6,3.5,99,0.00,CLR,,0.00,WeatherDisplay:10.37,2015-05-28 12:07:00,
2015-05-28 05:12:00,50.9,50.6,29.89,South,180,0.7,2.3,99,0.00,CLR,,0.00,WeatherDisplay:10.37,2015-05-28 12:12:00,
2015-05-28 05:17:00,50.9,50.6,29.89,SW,225,1.6,3.5,99,0.00,CLR,,0.00,WeatherDisplay:10.37,2015-05-28 12:17:00,
2015-05-28 05:22:00,50.9,50.6,29.89,South,180,1.6,4.6,99,0.00,CLR,,0.00,WeatherDisplay:10.37,2015-05-28 12:22:00,
2015-05-28 05:27:00,51.1,50.8,29.89,SW,225,1.6,3.5,99,0.00,CLR,,0.00,WeatherDisplay:10.37,2015-05-28 12:27:00,
2015-05-28 05:32:00,51.1,50.8,29.89,SE,135,1.6,3.5,99,0.00,CLR,,0.00,WeatherDisplay:10.37,2015-05-28 12:32:00,
2015-05-28 05:37:00,50.9,50.6,29.89,SE,135,0.0,3.5,99,0.00,CLR,,0.00,WeatherDisplay:10.37,2015-05-28 12:37:00,
2015-05-28 05:42:00,50.9,50.6,29.90,West,270,1.6,3.5,99,0.00,CLR,,0.00,WeatherDisplay:10.37,2015-05-28 12:42:00,
2015-05-28 05:47:00,50.9,50.6,29.89,NW,315,0.7,3.5,99,0.00,CLR,,0.00,WeatherDisplay:10.37,2015-05-28 12:47:00,
2015-05-28 05:52:00,50.9,50.6,29.90,South,180,0.7,3.5,99,0.00,CLR,,0.00,WeatherDisplay:10.37,2015-05-28 12:52:00,
2015-05-28 05:57:00,51.1,50.8,29.89,SW,225,1.6,3.5,99,0.00,CLR,,0.00,WeatherDisplay:10.37,2015-05-28 12:57:00,
2015-05-28 06:02:00,51.3,51.0,29.90,SW,225,2.2,5.8,99,0.00,CLR,,0.00,WeatherDisplay:10.37,2015-05-28 13:02:00,
2015-05-28 06:07:00,51.3,51.0,29.90,South,180,3.1,4.6,99,0.00,CLR,,0.00,WeatherDisplay:10.37,2015-05-28 13:07:00,
2015-05-28 06:12:00,51.3,51.0,29.90,SSW,202,3.8,5.8,99,0.00,CLR,,0.00,WeatherDisplay:10.37,2015-05-28 13:12:00,
2015-05-28 06:17:00,51.3,51.0,29.90,South,180,1.6,3.5,99,0.00,CLR,,0.00,WeatherDisplay:10.37,2015-05-28 13:17:00,
2015-05-28 06:22:00,51.1,50.8,29.90,SW,225,3.8,5.8,99,0.00,CLR,,0.00,WeatherDisplay:10.37,2015-05-28 13:22:00,
2015-05-28 06:27:00,51.1,50.8,29.90,South,180,2.2,4.6,99,0.00,CLR,,0.00,WeatherDisplay:10.37,2015-05-28 13:27:00,
2015-05-28 06:32:00,51.1,50.8,29.91,SW,225,3.1,4.6,99,0.00,CLR,,0.00,WeatherDisplay:10.37,2015-05-28 13:32:00,
2015-05-28 06:37:00,51.1,50.8,29.90,SSW,202,3.1,5.8,99,0.00,CLR,,0.00,WeatherDisplay:10.37,2015-05-28 13:37:00,
2015-05-28 06:42:00,51.3,51.0,29.91,South,180,0.7,3.5,99,0.00,CLR,,0.00,WeatherDisplay:10.37,2015-05-28 13:42:00,
2015-05-28 06:47:00,51.3,51.0,29.91,West,270,3.1,3.5,99,0.00,CLR,,0.00,WeatherDisplay:10.37,2015-05-28 13:47:00,
2015-05-28 06:52:00,51.3,51.0,29.91,SW,225,2.2,3.5,99,0.00,CLR,,0.00,WeatherDisplay:10.37,2015-05-28 13:52:00,
2015-05-28 06:57:00,51.3,51.0,29.91,SW,225,0.7,2.3,99,0.00,CLR,,0.00,WeatherDisplay:10.37,2015-05-28 13:57:00,
2015-05-28 07:02:00,51.4,51.2,29.91,South,180,2.2,3.5,99,0.00,CLR,,0.00,WeatherDisplay:10.37,2015-05-28 14:02:00,
2015-05-28 07:07:00,51.4,51.2,29.91,South,180,0.7,3.5,99,0.00,CLR,,0.00,WeatherDisplay:10.37,2015-05-28 14:07:00,
2015-05-28 07:12:00,51.4,51.2,29.91,SE,135,0.7,3.5,99,0.00,CLR,,0.00,WeatherDisplay:10.37,2015-05-28 14:12:00,
2015-05-28 07:17:00,51.8,51.5,29.90,SW,225,1.6,3.5,99,0.00,CLR,,0.00,WeatherDisplay:10.37,2015-05-28 14:17:00,
2015-05-28 07:22:00,51.6,51.3,29.91,SW,225,2.2,3.5,99,0.00,CLR,,0.00,WeatherDisplay:10.37,2015-05-28 14:22:00,
2015-05-28 07:27:00,51.6,51.3,29.91,South,180,0.7,3.5,99,0.00,CLR,,0.00,WeatherDisplay:10.37,2015-05-28 14:27:00,
2015-05-28 07:32:00,52.0,51.7,29.91,SW,225,0.0,1.2,99,0.00,CLR,,0.00,WeatherDisplay:10.37,2015-05-28 14:32:00,
2015-05-28 07:37:00,52.3,52.1,29.91,SW,225,0.7,1.2,99,0.00,CLR,,0.00,WeatherDisplay:10.37,2015-05-28 14:37:00,
2015-05-28 07:42:00,52.5,52.2,29.91,West,270,1.6,2.3,99,0.00,CLR,,0.00,WeatherDisplay:10.37,2015-05-28 14:42:00,
2015-05-28 07:47:00,52.5,52.2,29.91,SW,225,0.7,3.5,99,0.00,CLR,,0.00,WeatherDisplay:10.37,2015-05-28 14:47:00,
2015-05-28 07:52:00,52.3,52.1,29.91,West,270,1.6,3.5,99,0.00,CLR,,0.00,WeatherDisplay:10.37,2015-05-28 14:52:00,
2015-05-28 07:57:00,52.5,52.2,29.91,SW,225,0.7,2.3,99,0.00,CLR,,0.00,WeatherDisplay:10.37,2015-05-28 14:57:00,
2015-05-28 08:02:00,52.9,52.6,29.91,West,270,0.7,3.5,99,0.00,CLR,,0.00,WeatherDisplay:10.37,2015-05-28 15:02:00,
2015-05-28 08:07:00,53.1,52.8,29.91,SW,225,2.2,3.5,99,0.00,CLR,,0.00,WeatherDisplay:10.37,2015-05-28 15:07:00,
2015-05-28 08:12:00,53.1,52.8,29.91,South,180,0.7,3.5,99,0.00,CLR,,0.00,WeatherDisplay:10.37,2015-05-28 15:12:00,
2015-05-28 08:17:00,53.6,53.3,29.91,South,180,2.2,3.8,99,0.00,CLR,,0.00,WeatherDisplay:10.37,2015-05-28 15:17:00,
2015-05-28 08:22:00,54.1,53.9,29.91,NW,315,0.7,3.5,99,0.00,CLR,,0.00,WeatherDisplay:10.37,2015-05-28 15:22:00,
2015-05-28 08:27:00,54.9,54.6,29.91,NW,315,1.6,3.5,99,0.00,CLR,,0.00,WeatherDisplay:10.37,2015-05-28 15:27:00,
2015-05-28 08:32:00,55.0,54.8,29.91,SW,225,1.6,3.5,99,0.00,CLR,,0.00,WeatherDisplay:10.37,2015-05-28 15:32:00,
2015-05-28 08:37:00,55.2,54.9,29.91,West,270,0.7,3.5,99,0.00,CLR,,0.00,WeatherDisplay:10.37,2015-05-28 15:37:00,
2015-05-28 08:42:00,55.9,55.7,29.91,West,270,2.2,4.6,99,0.00,CLR,,0.00,WeatherDisplay:10.37,2015-05-28 15:42:00,
2015-05-28 08:47:00,56.3,54.9,29.91,West,270,2.2,4.5,95,0.00,CLR,,0.00,WeatherDisplay:10.37,2015-05-28 15:47:00,
2015-05-28 08:52:00,56.7,53.8,29.91,SW,225,2.2,5.8,90,0.00,CLR,,0.00,WeatherDisplay:10.37,2015-05-28 15:52:00,
2015-05-28 08:57:00,57.2,54.0,29.91,SW,225,3.1,4.6,89,0.00,CLR,,0.00,WeatherDisplay:10.37,2015-05-28 15:57:00,
2015-05-28 09:02:00,57.7,53.9,29.92,SW,225,2.2,3.5,87,0.00,CLR,,0.00,WeatherDisplay:10.37,2015-05-28 16:02:00,
2015-05-28 09:07:00,57.9,53.8,29.91,West,270,2.2,3.5,86,0.00,CLR,,0.00,WeatherDisplay:10.37,2015-05-28 16:07:00,
2015-05-28 09:12:00,58.1,53.9,29.91,West,270,2.2,4.6,86,0.00,CLR,,0.00,WeatherDisplay:10.37,2015-05-28 16:12:00,
2015-05-28 09:17:00,58.5,54.6,29.92,West,270,1.6,3.5,87,0.00,CLR,,0.00,WeatherDisplay:10.37,2015-05-28 16:17:00,
2015-05-28 09:22:00,58.5,54.0,29.92,West,270,3.1,5.8,85,0.00,CLR,,0.00,WeatherDisplay:10.37,2015-05-28 16:22:00,
2015-05-28 09:27:00,59.2,55.0,29.91,SW,225,2.2,4.6,86,0.00,CLR,,0.00,WeatherDisplay:10.37,2015-05-28 16:27:00,
2015-05-28 09:32:00,59.4,54.8,29.91,SW,225,1.6,4.6,85,0.00,CLR,,0.00,WeatherDisplay:10.37,2015-05-28 16:32:00,
2015-05-28 09:37:00,59.2,54.3,29.91,SW,225,3.1,5.8,84,0.00,CLR,,0.00,WeatherDisplay:10.37,2015-05-28 16:37:00,
2015-05-28 09:42:00,59.7,55.2,29.91,South,180,1.6,5.8,85,0.00,CLR,,0.00,WeatherDisplay:10.37,2015-05-28 16:42:00,
2015-05-28 09:47:00,60.3,55.4,29.91,SSE,158,0.7,4.6,84,0.00,CLR,,0.00,WeatherDisplay:10.37,2015-05-28 16:47:00,
2015-05-28 09:52:00,59.5,54.7,29.91,South,180,4.5,5.8,84,0.00,CLR,,0.00,WeatherDisplay:10.37,2015-05-28 16:52:00,
2015-05-28 09:57:00,59.5,55.7,29.91,South,180,0.7,4.6,87,0.00,CLR,,0.00,WeatherDisplay:10.37,2015-05-28 16:57:00,
2015-05-28 10:02:00,60.4,55.6,29.91,South,180,3.1,4.6,84,0.00,CLR,,0.00,WeatherDisplay:10.37,2015-05-28 17:02:00,
2015-05-28 10:07:00,60.6,55.4,29.91,SW,225,2.2,4.6,83,0.00,CLR,,0.00,WeatherDisplay:10.37,2015-05-28 17:07:00,
2015-05-28 10:12:00,61.5,55.6,29.91,SW,225,2.2,3.5,81,0.00,CLR,,0.00,WeatherDisplay:10.37,2015-05-28 17:12:00,
2015-05-28 10:17:00,63.0,56.0,29.90,SW,225,2.2,3.5,78,0.00,CLR,,0.00,WeatherDisplay:10.37,2015-05-28 17:17:00,
2015-05-28 10:22:00,63.0,54.5,29.90,SW,225,2.2,4.6,74,0.00,CLR,,0.00,WeatherDisplay:10.37,2015-05-28 17:22:00,
2015-05-28 10:27:00,63.1,55.1,29.90,West,270,0.7,3.5,75,0.00,CLR,,0.00,WeatherDisplay:10.37,2015-05-28 17:27:00,
2015-05-28 10:32:00,63.3,54.5,29.90,West,270,3.1,4.6,73,0.00,CLR,,0.00,WeatherDisplay:10.37,2015-05-28 17:32:00,
2015-05-28 10:38:00,63.3,55.3,29.90,West,270,1.6,3.5,75,0.00,CLR,,0.00,WeatherDisplay:10.37,2015-05-28 17:38:00,
2015-05-28 10:43:00,63.7,54.5,29.90,SW,225,3.1,4.6,72,0.00,CLR,,0.00,WeatherDisplay:10.37,2015-05-28 17:43:00,
2015-05-28 10:48:00,63.0,54.2,29.90,West,270,3.8,5.8,73,0.00,CLR,,0.00,WeatherDisplay:10.37,2015-05-28 17:48:00,
2015-05-28 10:53:00,63.1,55.1,29.90,West,270,3.1,4.6,75,0.00,CLR,,0.00,WeatherDisplay:10.37,2015-05-28 17:53:00,
2015-05-28 10:58:00,63.0,54.9,29.90,West,270,3.8,4.6,75,0.00,CLR,,0.00,WeatherDisplay:10.37,2015-05-28 17:58:00,
2015-05-28 11:03:00,63.3,55.6,29.90,West,270,3.1,5.8,76,0.00,CLR,,0.00,WeatherDisplay:10.37,2015-05-28 18:03:00,
2015-05-28 11:08:00,64.0,56.0,29.90,West,270,2.2,5.8,75,0.00,CLR,,0.00,WeatherDisplay:10.37,2015-05-28 18:08:00,
2015-05-28 11:13:00,64.6,55.7,29.90,NW,315,2.2,5.8,73,0.00,CLR,,0.00,WeatherDisplay:10.37,2015-05-28 18:13:00,
2015-05-28 11:18:00,65.5,56.2,29.90,NW,315,2.2,4.6,72,0.00,CLR,,0.00,WeatherDisplay:10.37,2015-05-28 18:18:00,
2015-05-28 11:23:00,66.0,55.6,29.90,West,270,2.2,5.8,69,0.00,CLR,,0.00,WeatherDisplay:10.37,2015-05-28 18:23:00,
2015-05-28 11:28:00,65.8,55.8,29.90,West,270,3.1,5.8,70,0.00,CLR,,0.00,WeatherDisplay:10.37,2015-05-28 18:28:00,
2015-05-28 11:33:00,66.0,56.0,29.90,West,270,2.2,4.6,70,0.00,CLR,,0.00,WeatherDisplay:10.37,2015-05-28 18:33:00,
2015-05-28 11:38:00,66.6,56.1,29.90,West,270,2.2,4.6,69,0.00,CLR,,0.00,WeatherDisplay:10.37,2015-05-28 18:38:00,
2015-05-28 11:43:00,66.6,55.7,29.90,SW,225,3.1,5.8,68,0.00,CLR,,0.00,WeatherDisplay:10.37,2015-05-28 18:43:00,
2015-05-28 11:48:00,67.6,56.7,29.90,West,270,3.1,4.6,68,0.00,CLR,,0.00,WeatherDisplay:10.37,2015-05-28 18:48:00,
2015-05-28 11:53:00,67.6,55.9,29.90,SW,225,3.1,5.8,66,0.00,CLR,,0.00,WeatherDisplay:10.37,2015-05-28 18:53:00,
2015-05-28 11:58:00,67.5,55.7,29.90,West,270,2.2,5.8,66,0.00,CLR,,0.00,WeatherDisplay:10.37,2015-05-28 18:58:00,
2015-05-28 12:03:00,67.8,56.0,29.90,WSW,248,2.2,4.6,66,0.00,CLR,,0.00,WeatherDisplay:10.37,2015-05-28 19:03:00,
2015-05-28 12:08:00,68.5,56.7,29.90,SW,225,2.2,5.8,66,0.00,CLR,,0.00,WeatherDisplay:10.37,2015-05-28 19:08:00,
2015-05-28 12:13:00,69.1,56.8,29.89,West,270,1.6,5.8,65,0.00,CLR,,0.00,WeatherDisplay:10.37,2015-05-28 19:13:00,
2015-05-28 12:18:00,69.3,56.6,29.89,SW,225,3.1,5.8,64,0.00,CLR,,0.00,WeatherDisplay:10.37,2015-05-28 19:18:00,
2015-05-28 12:23:00,70.0,55.9,29.89,SW,225,3.8,5.8,61,0.00,CLR,,0.00,WeatherDisplay:10.37,2015-05-28 19:23:00,
2015-05-28 12:28:00,70.9,56.8,29.89,South,180,1.6,4.6,61,0.00,CLR,,0.00,WeatherDisplay:10.37,2015-05-28 19:28:00,
2015-05-28 12:33:00,72.0,56.4,29.89,SW,225,3.1,3.5,58,0.00,CLR,,0.00,WeatherDisplay:10.37,2015-05-28 19:33:00,
2015-05-28 12:38:00,72.5,56.9,29.89,WSW,248,1.6,4.6,58,0.00,CLR,,0.00,WeatherDisplay:10.37,2015-05-28 19:38:00,
2015-05-28 12:43:00,72.9,56.2,29.89,SW,225,1.6,4.6,56,0.00,CLR,,0.00,WeatherDisplay:10.37,2015-05-28 19:43:00,
2015-05-28 12:48:00,73.0,56.4,29.89,SW,225,2.2,4.6,56,0.00,CLR,,0.00,WeatherDisplay:10.37,2015-05-28 19:48:00,
2015-05-28 12:53:00,73.0,56.4,29.89,SW,225,2.2,4.6,56,0.00,CLR,,0.00,WeatherDisplay:10.37,2015-05-28 19:53:00,
2015-05-28 12:58:00,73.2,56.6,29.88,South,180,1.6,4.6,56,0.00,CLR,,0.00,WeatherDisplay:10.37,2015-05-28 19:58:00,
2015-05-28 13:03:00,74.5,56.7,29.88,SW,225,1.6,3.5,54,0.00,CLR,,0.00,WeatherDisplay:10.37,2015-05-28 20:03:00,
2015-05-28 13:08:00,75.2,56.4,29.88,West,270,3.1,5.8,52,0.00,CLR,,0.00,WeatherDisplay:10.37,2015-05-28 20:08:00,
2015-05-28 13:13:00,74.8,56.6,29.88,West,270,2.2,3.5,53,0.00,CLR,,0.00,WeatherDisplay:10.37,2015-05-28 20:13:00,
2015-05-28 13:18:00,74.1,55.9,29.88,SW,225,3.1,5.8,53,0.00,CLR,,0.00,WeatherDisplay:10.37,2015-05-28 20:18:00,
2015-05-28 13:23:00,73.8,56.6,29.88,South,180,0.7,4.6,55,0.00,CLR,,0.00,WeatherDisplay:10.37,2015-05-28 20:23:00,
2015-05-28 13:28:00,74.3,56.6,29.88,NW,315,2.2,4.6,54,0.00,CLR,,0.00,WeatherDisplay:10.37,2015-05-28 20:28:00,
2015-05-28 13:33:00,74.5,56.2,29.88,West,270,2.2,4.6,53,0.00,CLR,,0.00,WeatherDisplay:10.37,2015-05-28 20:33:00,
2015-05-28 13:38:00,75.0,56.2,29.88,South,180,1.6,4.6,52,0.00,CLR,,0.00,WeatherDisplay:10.37,2015-05-28 20:38:00,
2015-05-28 13:43:00,75.6,56.7,29.87,West,270,0.7,4.6,52,0.00,CLR,,0.00,WeatherDisplay:10.37,2015-05-28 20:43:00,
2015-05-28 13:48:00,75.4,55.4,29.87,SW,225,2.2,5.8,50,0.00,CLR,,0.00,WeatherDisplay:10.37,2015-05-28 20:48:00,
2015-05-28 13:53:00,75.4,56.5,29.87,SW,225,3.1,4.6,52,0.00,CLR,,0.00,WeatherDisplay:10.37,2015-05-28 20:53:00,
2015-05-28 13:58:00,75.2,56.9,29.87,West,270,2.2,4.6,53,0.00,CLR,,0.00,WeatherDisplay:10.37,2015-05-28 20:58:00,
2015-05-28 14:03:00,75.0,57.2,29.87,West,270,3.1,5.8,54,0.00,CLR,,0.00,WeatherDisplay:10.37,2015-05-28 21:03:00,
2015-05-28 14:08:00,74.1,57.9,29.87,NW,315,3.1,4.6,57,0.00,CLR,,0.00,WeatherDisplay:10.37,2015-05-28 21:08:00,
2015-05-28 14:13:00,74.3,58.1,29.87,SW,225,3.1,5.8,57,0.00,CLR,,0.00,WeatherDisplay:10.37,2015-05-28 21:13:00,
2015-05-28 14:18:00,73.6,58.8,29.86,South,180,2.2,6.9,60,0.00,CLR,,0.00,WeatherDisplay:10.37,2015-05-28 21:18:00,
2015-05-28 14:23:00,74.3,60.0,29.86,NW,315,3.1,3.5,61,0.00,CLR,,0.00,WeatherDisplay:10.37,2015-05-28 21:23:00,
2015-05-28 14:28:00,74.8,59.1,29.86,South,180,3.1,6.9,58,0.00,CLR,,0.00,WeatherDisplay:10.37,2015-05-28 21:28:00,
2015-05-28 14:33:00,74.5,59.7,29.86,SE,135,0.7,2.3,60,0.00,CLR,,0.00,WeatherDisplay:10.37,2015-05-28 21:33:00,
2015-05-28 14:38:00,75.7,57.9,29.86,South,180,1.6,4.6,54,0.00,CLR,,0.00,WeatherDisplay:10.37,2015-05-28 21:38:00,
2015-05-28 14:43:00,76.1,58.2,29.86,SW,225,2.2,4.6,54,0.00,CLR,,0.00,WeatherDisplay:10.37,2015-05-28 21:43:00,
2015-05-28 14:48:00,74.7,58.9,29.86,SW,225,3.1,4.6,58,0.00,CLR,,0.00,WeatherDisplay:10.37,2015-05-28 21:48:00,
2015-05-28 14:53:00,73.6,59.8,29.86,WSW,248,2.2,4.6,62,0.00,CLR,,0.00,WeatherDisplay:10.37,2015-05-28 21:53:00,
2015-05-28 14:58:00,73.9,59.6,29.86,SSW,202,1.6,4.6,61,0.00,CLR,,0.00,WeatherDisplay:10.37,2015-05-28 21:58:00,
2015-05-28 15:03:00,75.4,60.5,29.86,SW,225,1.6,3.5,60,0.00,CLR,,0.00,WeatherDisplay:10.37,2015-05-28 22:03:00,
2015-05-28 15:08:00,74.7,59.4,29.85,SSW,202,2.2,5.8,59,0.00,CLR,,0.00,WeatherDisplay:10.37,2015-05-28 22:08:00,
2015-05-28 15:13:00,73.2,59.4,29.85,SW,225,2.2,5.8,62,0.00,CLR,,0.00,WeatherDisplay:10.37,2015-05-28 22:13:00,
2015-05-28 15:18:00,72.9,60.0,29.85,SW,225,2.2,4.6,64,0.00,CLR,,0.00,WeatherDisplay:10.37,2015-05-28 22:18:00,
2015-05-28 15:23:00,72.7,59.4,29.85,South,180,3.8,5.8,63,0.00,CLR,,0.00,WeatherDisplay:10.37,2015-05-28 22:23:00,
2015-05-28 15:28:00,70.9,60.2,29.85,South,180,3.1,8.1,69,0.00,CLR,,0.00,WeatherDisplay:10.37,2015-05-28 22:28:00,
2015-05-28 15:33:00,71.6,60.1,29.85,West,270,3.1,5.8,67,0.00,CLR,,0.00,WeatherDisplay:10.37,2015-05-28 22:33:00,
2015-05-28 15:38:00,72.5,60.1,29.85,NNW,338,3.8,6.9,65,0.00,CLR,,0.00,WeatherDisplay:10.37,2015-05-28 22:38:00,
2015-05-28 15:43:00,72.7,58.9,29.85,SW,225,3.8,5.8,62,0.00,CLR,,0.00,WeatherDisplay:10.37,2015-05-28 22:43:00,
2015-05-28 15:48:00,72.9,57.7,29.85,NW,315,3.8,6.9,59,0.00,CLR,,0.00,WeatherDisplay:10.37,2015-05-28 22:48:00,
2015-05-28 15:53:00,72.9,58.6,29.85,SW,225,2.2,5.8,61,0.00,CLR,,0.00,WeatherDisplay:10.37,2015-05-28 22:53:00,
2015-05-28 15:58:00,72.3,58.6,29.85,SW,225,3.1,5.8,62,0.00,CLR,,0.00,WeatherDisplay:10.37,2015-05-28 22:58:00,
2015-05-28 16:03:00,72.7,58.5,29.85,SW,225,3.1,5.8,61,0.00,CLR,,0.00,WeatherDisplay:10.37,2015-05-28 23:03:00,
2015-05-28 16:08:00,71.8,59.8,29.85,South,180,4.5,6.9,66,0.00,CLR,,0.00,WeatherDisplay:10.37,2015-05-28 23:08:00,
2015-05-28 16:14:00,72.0,59.6,29.85,SW,225,3.1,4.6,65,0.00,CLR,,0.00,WeatherDisplay:10.37,2015-05-28 23:14:00,
2015-05-28 16:18:00,72.3,58.6,29.85,SW,225,1.6,5.8,62,0.00,CLR,,0.00,WeatherDisplay:10.37,2015-05-28 23:18:00,
2015-05-28 16:24:00,73.4,57.7,29.85,SW,225,3.1,5.8,58,0.00,CLR,,0.00,WeatherDisplay:10.37,2015-05-28 23:24:00,
2015-05-28 16:29:00,72.7,58.0,29.84,SW,225,4.5,6.9,60,0.00,CLR,,0.00,WeatherDisplay:10.37,2015-05-28 23:29:00,
2015-05-28 16:34:00,72.1,58.4,29.84,SE,135,2.2,5.8,62,0.00,CLR,,0.00,WeatherDisplay:10.37,2015-05-28 23:34:00,
2015-05-28 16:39:00,72.5,57.8,29.84,SW,225,3.1,5.8,60,0.00,CLR,,0.00,WeatherDisplay:10.37,2015-05-28 23:39:00,
2015-05-28 16:44:00,72.9,59.1,29.84,South,180,3.1,5.8,62,0.00,CLR,,0.00,WeatherDisplay:10.37,2015-05-28 23:44:00,
2015-05-28 16:49:00,72.9,58.2,29.83,West,270,3.8,6.0,60,0.00,CLR,,0.00,WeatherDisplay:10.37,2015-05-28 23:49:00,
2015-05-28 16:54:00,72.7,58.9,29.84,West,270,3.8,5.8,62,0.00,CLR,,0.00,WeatherDisplay:10.37,2015-05-28 23:54:00,
2015-05-28 16:59:00,71.4,58.6,29.83,SW,225,3.8,6.0,64,0.00,CLR,,0.00,WeatherDisplay:10.37,2015-05-28 23:59:00,
2015-05-28 17:04:00,71.4,59.0,29.83,SW,225,3.1,5.8,65,0.00,CLR,,0.00,WeatherDisplay:10.37,2015-05-29 00:04:00,
2015-05-28 17:09:00,72.5,59.2,29.83,South,180,3.1,4.6,63,0.00,CLR,,0.00,WeatherDisplay:10.37,2015-05-29 00:09:00,
2015-05-28 17:14:00,72.1,59.3,29.83,SW,225,1.6,6.9,64,0.00,CLR,,0.00,WeatherDisplay:10.37,2015-05-29 00:14:00,
2015-05-28 17:19:00,72.1,58.4,29.83,SSW,202,3.1,7.6,62,0.00,CLR,,0.00,WeatherDisplay:10.37,2015-05-29 00:19:00,
2015-05-28 17:24:00,72.0,58.2,29.83,SW,225,3.1,5.8,62,0.00,CLR,,0.00,WeatherDisplay:10.37,2015-05-29 00:24:00,
2015-05-28 17:29:00,71.2,59.3,29.83,SSW,202,2.2,8.1,66,0.00,CLR,,0.00,WeatherDisplay:10.37,2015-05-29 00:29:00,
2015-05-28 17:34:00,71.6,58.3,29.83,SW,225,3.8,6.9,63,0.00,CLR,,0.00,WeatherDisplay:10.37,2015-05-29 00:34:00,
2015-05-28 17:39:00,72.3,59.5,29.83,West,270,2.2,5.8,64,0.00,CLR,,0.00,WeatherDisplay:10.37,2015-05-29 00:39:00,
2015-05-28 17:44:00,72.7,59.4,29.83,SW,225,2.2,4.6,63,0.00,CLR,,0.00,WeatherDisplay:10.37,2015-05-29 00:44:00,
2015-05-28 17:49:00,72.3,59.9,29.83,SW,225,3.1,5.8,65,0.00,CLR,,0.00,WeatherDisplay:10.37,2015-05-29 00:49:00,
2015-05-28 17:54:00,71.2,60.1,29.83,SW,225,3.1,8.1,68,0.00,CLR,,0.00,WeatherDisplay:10.37,2015-05-29 00:54:00,
2015-05-28 17:59:00,71.4,59.9,29.83,WNW,292,2.2,6.9,67,0.00,CLR,,0.00,WeatherDisplay:10.37,2015-05-29 00:59:00,
2015-05-28 18:04:00,70.5,59.4,29.83,SW,225,3.8,9.2,68,0.00,CLR,,0.00,WeatherDisplay:10.37,2015-05-29 01:04:00,
2015-05-28 18:09:00,69.8,59.6,29.83,South,180,1.6,4.6,70,0.00,CLR,,0.00,WeatherDisplay:10.37,2015-05-29 01:09:00,
2015-05-28 18:14:00,69.4,59.2,29.83,SW,225,3.1,5.8,70,0.00,CLR,,0.00,WeatherDisplay:10.37,2015-05-29 01:14:00,
2015-05-28 18:19:00,68.7,58.5,29.83,SW,225,1.6,5.8,70,0.00,CLR,,0.00,WeatherDisplay:10.37,2015-05-29 01:19:00,
2015-05-28 18:24:00,68.4,57.8,29.83,SW,225,2.2,4.6,69,0.00,CLR,,0.00,WeatherDisplay:10.37,2015-05-29 01:24:00,
2015-05-28 18:29:00,68.7,58.1,29.83,South,180,3.1,5.4,69,0.00,CLR,,0.00,WeatherDisplay:10.37,2015-05-29 01:29:00,
2015-05-28 18:34:00,69.6,58.6,29.83,NW,315,1.6,4.6,68,0.00,CLR,,0.00,WeatherDisplay:10.37,2015-05-29 01:34:00,
2015-05-28 18:39:00,70.3,58.0,29.83,SW,225,2.2,4.6,65,0.00,CLR,,0.00,WeatherDisplay:10.37,2015-05-29 01:39:00,
2015-05-28 18:44:00,70.2,57.8,29.83,SW,225,1.6,5.8,65,0.00,CLR,,0.00,WeatherDisplay:10.37,2015-05-29 01:44:00,
2015-05-28 18:49:00,70.0,56.8,29.83,SW,225,1.6,4.6,63,0.00,CLR,,0.00,WeatherDisplay:10.37,2015-05-29 01:49:00,
2015-05-28 18:54:00,69.8,57.1,29.83,SW,225,2.2,4.6,64,0.00,CLR,,0.00,WeatherDisplay:10.37,2015-05-29 01:54:00,
2015-05-28 18:59:00,68.5,57.6,29.83,SW,225,3.8,5.8,68,0.00,CLR,,0.00,WeatherDisplay:10.37,2015-05-29 01:59:00,
2015-05-28 19:04:00,66.9,57.2,29.83,South,180,3.8,5.8,71,0.00,CLR,,0.00,WeatherDisplay:10.37,2015-05-29 02:04:00,
2015-05-28 19:09:00,65.7,57.1,29.84,SW,225,4.5,8.1,74,0.00,CLR,,0.00,WeatherDisplay:10.37,2015-05-29 02:09:00,
2015-05-28 19:14:00,64.6,56.5,29.84,SW,225,6.0,8.1,75,0.00,CLR,,0.00,WeatherDisplay:10.37,2015-05-29 02:14:00,
2015-05-28 19:19:00,64.4,57.0,29.84,SW,225,6.0,9.2,77,0.00,CLR,,0.00,WeatherDisplay:10.37,2015-05-29 02:19:00,
2015-05-28 19:24:00,63.9,56.5,29.83,SW,225,5.4,10.4,77,0.00,CLR,,0.00,WeatherDisplay:10.37,2015-05-29 02:24:00,
2015-05-28 19:29:00,63.0,56.0,29.83,South,180,3.1,5.8,78,0.00,CLR,,0.00,WeatherDisplay:10.37,2015-05-29 02:29:00,
2015-05-28 19:34:00,62.8,56.2,29.83,South,180,3.1,5.8,79,0.00,CLR,,0.00,WeatherDisplay:10.37,2015-05-29 02:34:00,
2015-05-28 19:39:00,63.0,56.0,29.83,South,180,3.1,5.8,78,0.00,CLR,,0.00,WeatherDisplay:10.37,2015-05-29 02:39:00,
2015-05-28 19:44:00,62.6,56.0,29.83,South,180,3.1,5.8,79,0.00,CLR,,0.00,WeatherDisplay:10.37,2015-05-29 02:44:00,
2015-05-28 19:49:00,63.0,55.6,29.84,SW,225,4.5,6.9,77,0.00,CLR,,0.00,WeatherDisplay:10.37,2015-05-29 02:49:00,
2015-05-28 19:54:00,62.6,55.6,29.83,SW,225,4.5,6.9,78,0.00,CLR,,0.00,WeatherDisplay:10.37,2015-05-29 02:54:00,
2015-05-28 19:59:00,62.4,55.5,29.83,SSW,202,4.5,8.1,78,0.00,CLR,,0.00,WeatherDisplay:10.37,2015-05-29 02:59:00,
2015-05-28 20:04:00,62.4,54.8,29.84,SW,225,3.8,6.9,76,0.00,CLR,,0.00,WeatherDisplay:10.37,2015-05-29 03:04:00,
2015-05-28 20:09:00,62.2,54.9,29.83,SW,225,4.5,5.8,77,0.00,CLR,,0.00,WeatherDisplay:10.37,2015-05-29 03:09:00,
2015-05-28 20:14:00,62.4,55.1,29.83,South,180,3.1,5.8,77,0.00,CLR,,0.00,WeatherDisplay:10.37,2015-05-29 03:14:00,
2015-05-28 20:19:00,62.2,55.3,29.83,SW,225,3.1,4.6,78,0.00,CLR,,0.00,WeatherDisplay:10.37,2015-05-29 03:19:00,
2015-05-28 20:24:00,61.7,54.8,29.83,SW,225,2.2,5.8,78,0.00,CLR,,0.00,WeatherDisplay:10.37,2015-05-29 03:24:00,
2015-05-28 20:29:00,61.3,55.1,29.83,SW,225,3.1,4.6,80,0.00,CLR,,0.00,WeatherDisplay:10.37,2015-05-29 03:29:00,
2015-05-28 20:34:00,61.0,54.8,29.83,SW,225,3.8,5.8,80,0.00,CLR,,0.00,WeatherDisplay:10.37,2015-05-29 03:34:00,
2015-05-28 20:39:00,60.6,55.1,29.83,South,180,2.2,5.8,82,0.00,CLR,,0.00,WeatherDisplay:10.37,2015-05-29 03:39:00,
2015-05-28 20:44:00,60.4,54.9,29.83,SE,135,3.8,5.8,82,0.00,CLR,,0.00,WeatherDisplay:10.37,2015-05-29 03:44:00,
2015-05-28 20:49:00,60.1,55.2,29.83,South,180,1.6,4.6,84,0.00,CLR,,0.00,WeatherDisplay:10.37,2015-05-29 03:49:00,
2015-05-28 20:54:00,59.7,54.9,29.83,SE,135,3.1,4.6,84,0.00,CLR,,0.00,WeatherDisplay:10.37,2015-05-29 03:54:00,
2015-05-28 20:59:00,59.4,54.8,29.83,South,180,3.1,4.6,85,0.00,CLR,,0.00,WeatherDisplay:10.37,2015-05-29 03:59:00,
2015-05-28 21:04:00,59.2,54.7,29.83,SSE,158,3.1,5.8,85,0.00,CLR,,0.00,WeatherDisplay:10.37,2015-05-29 04:04:00,
2015-05-28 21:09:00,59.2,54.7,29.83,SE,135,3.1,4.6,85,0.00,CLR,,0.00,WeatherDisplay:10.37,2015-05-29 04:09:00,
2015-05-28 21:14:00,58.8,54.6,29.83,South,180,2.2,3.5,86,0.00,CLR,,0.00,WeatherDisplay:10.37,2015-05-29 04:14:00,
2015-05-28 21:19:00,58.8,54.6,29.83,SW,225,2.2,5.8,86,0.00,CLR,,0.00,WeatherDisplay:10.37,2015-05-29 04:19:00,
2015-05-28 21:24:00,58.8,54.6,29.83,SE,135,2.2,3.5,86,0.00,CLR,,0.00,WeatherDisplay:10.37,2015-05-29 04:24:00,
2015-05-28 21:29:00,58.5,54.9,29.83,SE,135,3.1,4.6,88,0.00,CLR,,0.00,WeatherDisplay:10.37,2015-05-29 04:29:00,